Regional Weather Roundup
Issued by NWS Jackson, KY

Home | Current Version | Previous Version | Text Only | Print | Product List | Glossary Off
Versions: 1 2 3 4 5 6 7 8 9 10 11 12 13 14 15 16 17 18 19 20 21 22 23 24 25 26 27

000
ASUS43 KJKL 182110
RWRJKL

EAST KENTUCKY HOURLY WEATHER ROUNDUP
NATIONAL WEATHER SERVICE JACKSON KY
400 PM EST SAT FEB 18 2017

NOTE: "FAIR" INDICATES FEW OR NO CLOUDS BELOW 12,000 FEET WITH
NO SIGNIFICANT WEATHER AND/OR OBSTRUCTIONS TO VISIBILITY.

* THESE REPORTS ARE NOT UNDER NWS QUALITY CONTROL AND MAY NOT
  REPORT WEATHER SUCH AS PRECIPITATION AND FOG.

KYZ079-080-083-085-087-088-110-112-115-119-120-182200
...EASTERN KENTUCKY...

CITY           SKY/WX    TMP DP  RH WIND       PRES   REMARKS
JACKSON        CLOUDY    50  41  71 VRB5      29.89F
LONDON         CLOUDY    50  44  80 S5        29.89F
SOMERSET*      CLOUDY    50  45  81 S7        29.90F
MONTICELLO*    CLOUDY    54  46  76 N8        29.89F
WILLIAMSBURG*  CLOUDY    48  48 100 SE5       29.90F
MIDDLESBORO*   DRIZZLE   49  46  92 CALM      29.91F
HARLAN APT*    CLOUDY    48  41  76 CALM      29.90F
PIKE CO APT*   PTSUNNY   56  32  40 W3        29.89S
BIG SANDY APT* CLOUDY    56  34  43 W7        29.89F
MOREHEAD APT*  LGT RAIN  50  43  76 SW6       29.90F
ASHLAND*       CLOUDY    54  45  71 SW7       29.88R
$$

KYZ035-036-041-042-044-050-067-078-099-182200
...CENTRAL KENTUCKY...

CITY           SKY/WX    TMP DP  RH WIND       PRES   REMARKS
MT STERLING*   DRIZZLE   50  43  76 W7        29.90S
FLEMING/MASON* LGT RAIN  48  46  90 SW8       29.90R
DANVILLE*      CLOUDY    52  45  76 SW7       29.89S
LEXINGTON      LGT RAIN  50  45  83 S6        29.88S
FRANKFORT      LGT RAIN  51  45  79 S5        29.87R
LOUISVILLE     LGT RAIN  53  47  79 SW8       29.86S
LEBANON*       MOCLDY    54  45  71 SW7       29.88S
GLASGOW*       CLOUDY    51  46  82 SW6       29.89S
BOWLING GREEN  CLOUDY    52  49  89 SW6       29.90S
$$

KYZ091>093-OHZ055-061-077-WVZ005-015-034-035-042-182200
...SOUTHERN OHIO/WEST VIRGINIA...

CITY           SKY/WX    TMP DP  RH WIND       PRES   REMARKS
COVINGTON      CLOUDY    60  41  49 SW15      29.82S
COLUMBUS       MOSUNNY   66  38  35 SW17      29.80R
DAYTON         MOSUNNY   64  39  39 S16       29.80R
WILMINGTON     CLOUDY    60  41  49 S14       29.81S
HUNTINGTON     LGT RAIN  54  40  59 W10       29.89R
CHARLESTON     CLOUDY    61  33  35 SW13      29.87R
PINEVILLE*     CLOUDY    59  27  29 MISG      29.93S
BECKLEY        PTSUNNY   54  30  40 W7        29.89S
BLUEFIELD      MOSUNNY   57  27  31 SW8       29.90R
LOGAN CO APT*    N/A     59  32  36 CALM      29.88S
$$

VAZ002-007-008-TNZ017-027-036-066-071-182200
...SOUTHWEST VIRGINIA/EAST TENNESSEE...

CITY           SKY/WX    TMP DP  RH WIND       PRES   REMARKS
WISE*          CLOUDY    52  32  46 CALM      29.92F
JONESVILLE*    MOCLDY    50  41  71 CALM      29.94S
ABINGDON*      CLOUDY    57  30  35 W9        29.92S
BRISTOL        CLOUDY    55  36  48 SW9       29.93S
MORRISTOWN*    CLOUDY    52  45  76 SE5       29.91S
SEVIERVILLE*   CLOUDY    50  41  71 NE3       29.91F
KNOXVILLE      CLOUDY    50  46  86 CALM      29.91F
LAFOLLETTE*    CLOUDY    48  48 100 CALM      29.93F
OAK RIDGE      CLOUDY    51  47  86 CALM      29.93F
CROSSVILLE     CLOUDY    49  45  86 VRB7      29.90R
NASHVILLE      PTSUNNY   57  44  62 SW6       29.90F
$$

...KEY TO REMARKS...
VSB - VISIBILITY IN MILES
WCI - WIND CHILL INDEX
HX  - HEAT INDEX

$$




USA.gov is the U.S. government's official web portal to all federal, state and local government web resources and services.